Year,Month,Day,Hour,Minute,Value (Times are PST for temperature in C)
2008,06,26,00,00,13.40
2008,06,26,00,01,13.30
2008,06,26,00,02,13.30
2008,06,26,00,03,13.30
2008,06,26,00,04,13.30
2008,06,26,00,05,13.20
2008,06,26,00,06,13.20
2008,06,26,00,07,13.20
2008,06,26,00,08,13.20
2008,06,26,00,09,13.20
2008,06,26,00,10,13.20
2008,06,26,00,11,13.20
2008,06,26,00,12,13.20
2008,06,26,00,13,13.20
2008,06,26,00,14,13.20
2008,06,26,00,15,13.10
2008,06,26,00,16,13.10
2008,06,26,00,17,13.10
2008,06,26,00,18,13.10
2008,06,26,00,19,13.10
2008,06,26,00,20,13.00
2008,06,26,00,21,13.00
2008,06,26,00,22,12.90
2008,06,26,00,23,12.90
2008,06,26,00,24,12.90
2008,06,26,00,25,12.90
2008,06,26,00,26,12.80
2008,06,26,00,27,12.80
2008,06,26,00,28,12.80
2008,06,26,00,29,12.80
2008,06,26,00,30,12.80
2008,06,26,00,31,12.80
2008,06,26,00,32,12.70
2008,06,26,00,33,12.70
2008,06,26,00,34,12.70
2008,06,26,00,35,12.70
2008,06,26,00,36,12.60
2008,06,26,00,37,12.60
2008,06,26,00,38,12.60
2008,06,26,00,39,12.60
2008,06,26,00,40,12.60
2008,06,26,00,41,12.60
2008,06,26,00,42,12.60
2008,06,26,00,43,12.50
2008,06,26,00,44,12.50
2008,06,26,00,45,12.50
2008,06,26,00,46,12.50
2008,06,26,00,47,12.50
2008,06,26,00,48,12.50
2008,06,26,00,49,12.40
2008,06,26,00,50,12.40
2008,06,26,00,51,12.40
2008,06,26,00,52,12.40
2008,06,26,00,53,12.40
2008,06,26,00,54,12.40
2008,06,26,00,55,12.40
2008,06,26,00,56,12.40
2008,06,26,00,57,12.40
2008,06,26,00,58,12.40
2008,06,26,00,59,12.40
2008,06,26,01,00,12.40
2008,06,26,01,01,12.30
2008,06,26,01,02,12.30
2008,06,26,01,03,12.30
2008,06,26,01,04,12.30
2008,06,26,01,05,12.30
2008,06,26,01,06,12.30
2008,06,26,01,07,12.30
2008,06,26,01,08,12.30
2008,06,26,01,09,12.30
2008,06,26,01,10,12.30
2008,06,26,01,11,12.30
2008,06,26,01,12,12.30
2008,06,26,01,13,12.30
2008,06,26,01,14,12.30
2008,06,26,01,15,12.30
2008,06,26,01,16,12.30
2008,06,26,01,17,12.20
2008,06,26,01,18,12.20
2008,06,26,01,19,12.20
2008,06,26,01,20,12.20
2008,06,26,01,21,12.20
2008,06,26,01,22,12.10
2008,06,26,01,23,12.10
2008,06,26,01,24,12.10
2008,06,26,01,25,12.10
2008,06,26,01,26,12.10
2008,06,26,01,27,12.10
2008,06,26,01,28,12.00
2008,06,26,01,29,12.00
2008,06,26,01,30,12.00
2008,06,26,01,31,12.00
2008,06,26,01,32,11.90
2008,06,26,01,33,11.90
2008,06,26,01,34,11.90
2008,06,26,01,35,11.90
2008,06,26,01,36,11.90
2008,06,26,01,37,11.90
2008,06,26,01,38,11.90
2008,06,26,01,39,11.90
2008,06,26,01,40,11.80
2008,06,26,01,41,11.80
2008,06,26,01,42,11.80
2008,06,26,01,43,11.80
2008,06,26,01,44,11.80
2008,06,26,01,45,11.80
2008,06,26,01,46,11.80
2008,06,26,01,47,11.80
2008,06,26,01,48,11.80
2008,06,26,01,49,11.80
2008,06,26,01,50,11.80
2008,06,26,01,51,11.80
2008,06,26,01,52,11.80
2008,06,26,01,53,11.80
2008,06,26,01,54,11.70
2008,06,26,01,55,11.80
2008,06,26,01,56,11.70
2008,06,26,01,57,11.70
2008,06,26,01,58,11.70
2008,06,26,01,59,11.70
2008,06,26,02,00,11.70
2008,06,26,02,01,11.70
2008,06,26,02,02,11.70
2008,06,26,02,03,11.70
2008,06,26,02,04,11.70
2008,06,26,02,05,11.70
2008,06,26,02,06,11.70
2008,06,26,02,07,11.70
2008,06,26,02,08,11.70
2008,06,26,02,09,11.70
2008,06,26,02,10,11.70
2008,06,26,02,11,11.70
2008,06,26,02,12,11.70
2008,06,26,02,13,11.70
2008,06,26,02,14,11.70
2008,06,26,02,15,11.70
2008,06,26,02,16,11.70
2008,06,26,02,17,11.70
2008,06,26,02,18,11.70
2008,06,26,02,19,11.70
2008,06,26,02,20,11.70
2008,06,26,02,21,11.70
2008,06,26,02,22,11.70
2008,06,26,02,23,11.70
2008,06,26,02,24,11.60
2008,06,26,02,25,11.60
2008,06,26,02,26,11.60
2008,06,26,02,27,11.60
2008,06,26,02,28,11.60
2008,06,26,02,29,11.60
2008,06,26,02,30,11.60
2008,06,26,02,31,11.60
2008,06,26,02,32,11.50
2008,06,26,02,33,11.50
2008,06,26,02,34,11.50
2008,06,26,02,35,11.50
2008,06,26,02,36,11.50
2008,06,26,02,37,11.50
2008,06,26,02,38,11.50
2008,06,26,02,39,11.50
2008,06,26,02,40,11.50
2008,06,26,02,41,11.40
2008,06,26,02,42,11.40
2008,06,26,02,43,11.40
2008,06,26,02,44,11.40
2008,06,26,02,45,11.40
2008,06,26,02,46,11.40
2008,06,26,02,47,11.40
2008,06,26,02,48,11.40
2008,06,26,02,49,11.40
2008,06,26,02,50,11.40
2008,06,26,02,51,11.40
2008,06,26,02,52,11.40
2008,06,26,02,53,11.40
2008,06,26,02,54,11.40
2008,06,26,02,55,11.40
2008,06,26,02,56,11.40
2008,06,26,02,57,11.40
2008,06,26,02,58,11.40
2008,06,26,02,59,11.40
2008,06,26,03,00,11.40
2008,06,26,03,01,11.40
2008,06,26,03,02,11.40
2008,06,26,03,03,11.40
2008,06,26,03,04,11.40
2008,06,26,03,05,11.40
2008,06,26,03,06,11.40
2008,06,26,03,07,11.40
2008,06,26,03,08,11.40
2008,06,26,03,09,11.40
2008,06,26,03,10,11.40
2008,06,26,03,11,11.40
2008,06,26,03,12,11.40
2008,06,26,03,13,11.40
2008,06,26,03,14,11.40
2008,06,26,03,15,11.40
2008,06,26,03,16,11.40
2008,06,26,03,17,11.40
2008,06,26,03,18,11.40
2008,06,26,03,19,11.40
2008,06,26,03,20,11.40
2008,06,26,03,21,11.40
2008,06,26,03,22,11.40
2008,06,26,03,23,11.40
2008,06,26,03,24,11.40
2008,06,26,03,25,11.30
2008,06,26,03,26,11.30
2008,06,26,03,27,11.30
2008,06,26,03,28,11.40
2008,06,26,03,29,11.40
2008,06,26,03,30,11.30
2008,06,26,03,31,11.40
2008,06,26,03,32,11.30
2008,06,26,03,33,11.30
2008,06,26,03,34,11.30
2008,06,26,03,35,11.30
2008,06,26,03,36,11.30
2008,06,26,03,37,11.30
2008,06,26,03,38,11.30
2008,06,26,03,39,11.40
2008,06,26,03,40,11.40
2008,06,26,03,41,11.40
2008,06,26,03,42,11.40
2008,06,26,03,43,11.40
2008,06,26,03,44,11.40
2008,06,26,03,45,11.40
2008,06,26,03,46,11.40
2008,06,26,03,47,11.40
2008,06,26,03,48,11.40
2008,06,26,03,49,11.40
2008,06,26,03,50,11.40
2008,06,26,03,51,11.40
2008,06,26,03,52,11.40
2008,06,26,03,53,11.40
2008,06,26,03,54,11.40
2008,06,26,03,55,11.40
2008,06,26,03,56,11.40
2008,06,26,03,57,11.40
2008,06,26,03,58,11.40
2008,06,26,03,59,11.40
2008,06,26,04,00,11.40
2008,06,26,04,01,11.40
2008,06,26,04,02,11.40
2008,06,26,04,03,11.40
2008,06,26,04,04,11.40
2008,06,26,04,05,11.40
2008,06,26,04,06,11.40
2008,06,26,04,07,11.40
2008,06,26,04,08,11.40
2008,06,26,04,09,11.40
2008,06,26,04,10,11.40
2008,06,26,04,11,11.40
2008,06,26,04,12,11.40
2008,06,26,04,13,11.30
2008,06,26,04,14,11.40
2008,06,26,04,15,11.40
2008,06,26,04,16,11.30
2008,06,26,04,17,11.30
2008,06,26,04,18,11.30
2008,06,26,04,19,11.30
2008,06,26,04,20,11.30
2008,06,26,04,21,11.30
2008,06,26,04,22,11.30
2008,06,26,04,23,11.30
2008,06,26,04,24,11.30
2008,06,26,04,25,11.30
2008,06,26,04,26,11.30
2008,06,26,04,27,11.30
2008,06,26,04,28,11.30
2008,06,26,04,29,11.30
2008,06,26,04,30,11.30
2008,06,26,04,31,11.30
2008,06,26,04,32,11.30
2008,06,26,04,33,11.40
2008,06,26,04,34,11.40
2008,06,26,04,35,11.40
2008,06,26,04,36,11.40
2008,06,26,04,37,11.40
2008,06,26,04,38,11.40
2008,06,26,04,39,11.40
2008,06,26,04,40,11.50
2008,06,26,04,41,11.50
2008,06,26,04,42,11.50
2008,06,26,04,43,11.50
2008,06,26,04,44,11.60
2008,06,26,04,45,11.50
2008,06,26,04,46,11.60
2008,06,26,04,47,11.50
2008,06,26,04,48,11.50
2008,06,26,04,49,11.60
2008,06,26,04,50,11.60
2008,06,26,04,51,11.60
2008,06,26,04,52,11.60
2008,06,26,04,53,11.60
2008,06,26,04,54,11.60
2008,06,26,04,55,11.60
2008,06,26,04,56,11.60
2008,06,26,04,57,11.60
2008,06,26,04,58,11.60
2008,06,26,04,59,11.60
2008,06,26,05,00,11.60
2008,06,26,05,01,11.70
2008,06,26,05,02,11.70
2008,06,26,05,03,11.70
2008,06,26,05,04,11.70
2008,06,26,05,05,11.70
2008,06,26,05,06,11.70
2008,06,26,05,07,11.80
2008,06,26,05,08,11.80
2008,06,26,05,09,11.80
2008,06,26,05,10,11.80
2008,06,26,05,11,11.80
2008,06,26,05,12,11.80
2008,06,26,05,13,11.80
2008,06,26,05,14,11.80
2008,06,26,05,15,11.80
2008,06,26,05,16,11.80
2008,06,26,05,17,11.80
2008,06,26,05,18,11.80
2008,06,26,05,19,11.80
2008,06,26,05,20,11.80
2008,06,26,05,21,11.80
2008,06,26,05,22,11.80
2008,06,26,05,23,11.80
2008,06,26,05,24,11.80
2008,06,26,05,25,11.80
2008,06,26,05,26,11.80
2008,06,26,05,27,11.80
2008,06,26,05,28,11.80
2008,06,26,05,29,11.80
2008,06,26,05,30,11.80
2008,06,26,05,31,11.80
2008,06,26,05,32,11.80
2008,06,26,05,33,11.80
2008,06,26,05,34,11.80
2008,06,26,05,35,11.80
2008,06,26,05,36,11.80
2008,06,26,05,37,11.80
2008,06,26,05,38,11.80
2008,06,26,05,39,11.80
2008,06,26,05,40,11.80
2008,06,26,05,41,11.80
2008,06,26,05,42,11.80
2008,06,26,05,43,11.80
2008,06,26,05,44,11.80
2008,06,26,05,45,11.80
2008,06,26,05,46,11.80
2008,06,26,05,47,11.80
2008,06,26,05,48,11.80
2008,06,26,05,49,11.80
2008,06,26,05,50,11.80
2008,06,26,05,51,11.80
2008,06,26,05,52,11.80
2008,06,26,05,53,11.80
2008,06,26,05,54,11.80
2008,06,26,05,55,11.80
2008,06,26,05,56,11.80
2008,06,26,05,57,11.80
2008,06,26,05,58,11.80
2008,06,26,05,59,11.80
2008,06,26,06,00,11.80
2008,06,26,06,01,11.90
2008,06,26,06,02,11.90
2008,06,26,06,03,11.90
2008,06,26,06,04,11.90
2008,06,26,06,05,11.90
2008,06,26,06,06,11.90
2008,06,26,06,07,12.00
2008,06,26,06,08,12.00
2008,06,26,06,09,12.00
2008,06,26,06,10,12.10
2008,06,26,06,11,12.10
2008,06,26,06,12,12.10
2008,06,26,06,13,12.10
2008,06,26,06,14,12.10
2008,06,26,06,15,12.10
2008,06,26,06,16,12.10
2008,06,26,06,17,12.10
2008,06,26,06,18,12.10
2008,06,26,06,19,12.10
2008,06,26,06,20,12.10
2008,06,26,06,21,12.20
2008,06,26,06,22,12.20
2008,06,26,06,23,12.20
2008,06,26,06,24,12.20
2008,06,26,06,25,12.20
2008,06,26,06,26,12.20
2008,06,26,06,27,12.20
2008,06,26,06,28,12.20
2008,06,26,06,29,12.20
2008,06,26,06,30,12.20
2008,06,26,06,31,12.20
2008,06,26,06,32,12.20
2008,06,26,06,33,12.20
2008,06,26,06,34,12.20
2008,06,26,06,35,12.20
2008,06,26,06,36,12.30
2008,06,26,06,37,12.30
2008,06,26,06,38,12.30
2008,06,26,06,39,12.30
2008,06,26,06,40,12.30
2008,06,26,06,41,12.30
2008,06,26,06,42,12.30
2008,06,26,06,43,12.40
2008,06,26,06,44,12.40
2008,06,26,06,45,12.40
2008,06,26,06,46,12.40
2008,06,26,06,47,12.40
2008,06,26,06,48,12.50
2008,06,26,06,49,12.50
2008,06,26,06,50,12.50
2008,06,26,06,51,12.50
2008,06,26,06,52,12.60
2008,06,26,06,53,12.60
2008,06,26,06,54,12.60
2008,06,26,06,55,12.60
2008,06,26,06,56,12.60
2008,06,26,06,57,12.60
2008,06,26,06,58,12.60
2008,06,26,06,59,12.70
2008,06,26,07,00,12.70
2008,06,26,07,01,12.70
2008,06,26,07,02,12.70
2008,06,26,07,03,12.70
2008,06,26,07,04,12.70
2008,06,26,07,05,12.70
2008,06,26,07,06,12.70
2008,06,26,07,07,12.70
2008,06,26,07,08,12.70
2008,06,26,07,09,12.70
2008,06,26,07,10,12.80
2008,06,26,07,11,12.80
2008,06,26,07,12,12.80
2008,06,26,07,13,12.80
2008,06,26,07,14,12.80
2008,06,26,07,15,12.80
2008,06,26,07,16,12.80
2008,06,26,07,17,12.80
2008,06,26,07,18,12.80
2008,06,26,07,19,12.80
2008,06,26,07,20,12.80
2008,06,26,07,21,12.80
2008,06,26,07,22,12.80
2008,06,26,07,23,12.80
2008,06,26,07,24,12.80
2008,06,26,07,25,12.80
2008,06,26,07,26,12.80
2008,06,26,07,27,12.80
2008,06,26,07,28,12.90
2008,06,26,07,29,12.90
2008,06,26,07,30,12.90
2008,06,26,07,31,12.90
2008,06,26,07,32,12.90
2008,06,26,07,33,12.90
2008,06,26,07,34,12.90
2008,06,26,07,35,12.90
2008,06,26,07,36,12.90
2008,06,26,07,37,13.00
2008,06,26,07,38,13.00
2008,06,26,07,39,13.00
2008,06,26,07,40,13.00
2008,06,26,07,41,13.10
2008,06,26,07,42,13.10
2008,06,26,07,43,13.10
2008,06,26,07,44,13.10
2008,06,26,07,45,13.20
2008,06,26,07,46,13.20
2008,06,26,07,47,13.20
2008,06,26,07,48,13.30
2008,06,26,07,49,13.30
2008,06,26,07,50,13.30
2008,06,26,07,51,13.40
2008,06,26,07,52,13.40
2008,06,26,07,53,13.30
2008,06,26,07,54,13.40
2008,06,26,07,55,13.40
2008,06,26,07,56,13.40
2008,06,26,07,57,13.40
2008,06,26,07,58,13.40
2008,06,26,07,59,13.40
2008,06,26,08,00,13.40
2008,06,26,08,01,13.40
2008,06,26,08,02,13.40
2008,06,26,08,03,13.40
2008,06,26,08,04,13.40
2008,06,26,08,05,13.50
2008,06,26,08,06,13.50
2008,06,26,08,07,13.40
2008,06,26,08,08,13.40
2008,06,26,08,09,13.40
2008,06,26,08,10,13.40
2008,06,26,08,11,13.40
2008,06,26,08,12,13.40
2008,06,26,08,13,13.40
2008,06,26,08,14,13.40
2008,06,26,08,15,13.40
2008,06,26,08,16,13.40
2008,06,26,08,17,13.40
2008,06,26,08,18,13.40
2008,06,26,08,19,13.40
2008,06,26,08,20,13.50
2008,06,26,08,21,13.50
2008,06,26,08,22,13.50
2008,06,26,08,23,13.60
2008,06,26,08,24,13.60
2008,06,26,08,25,13.60
2008,06,26,08,26,13.60
2008,06,26,08,27,13.70
2008,06,26,08,28,13.70
2008,06,26,08,29,13.80
2008,06,26,08,30,13.80
2008,06,26,08,31,13.80
2008,06,26,08,32,13.80
2008,06,26,08,33,13.90
2008,06,26,08,34,13.90
2008,06,26,08,35,13.90
2008,06,26,08,36,13.90
2008,06,26,08,37,13.90
2008,06,26,08,38,13.90
2008,06,26,08,39,13.90
2008,06,26,08,40,13.90
2008,06,26,08,41,13.90
2008,06,26,08,42,13.90
2008,06,26,08,43,13.90
2008,06,26,08,44,13.90
2008,06,26,08,45,13.90
2008,06,26,08,46,13.80
2008,06,26,08,47,13.80
2008,06,26,08,48,13.80
2008,06,26,08,49,13.80
2008,06,26,08,50,13.80
2008,06,26,08,51,13.80
2008,06,26,08,52,13.80
2008,06,26,08,53,13.80
2008,06,26,08,54,13.80
2008,06,26,08,55,13.80
2008,06,26,08,56,13.80
2008,06,26,08,57,13.80
2008,06,26,08,58,13.80
2008,06,26,08,59,13.80
2008,06,26,09,00,13.90
2008,06,26,09,01,13.90
2008,06,26,09,02,13.90
2008,06,26,09,03,13.90
2008,06,26,09,04,13.90
2008,06,26,09,05,14.00
2008,06,26,09,06,14.00
2008,06,26,09,07,14.00
2008,06,26,09,08,14.00
2008,06,26,09,09,14.00
2008,06,26,09,10,14.00
2008,06,26,09,11,14.10
2008,06,26,09,12,14.10
2008,06,26,09,13,14.10
2008,06,26,09,14,14.10
2008,06,26,09,15,14.10
2008,06,26,09,16,14.10
2008,06,26,09,17,14.20
2008,06,26,09,18,14.20
2008,06,26,09,19,14.20
2008,06,26,09,20,14.20
2008,06,26,09,21,14.30
2008,06,26,09,22,14.30
2008,06,26,09,23,14.30
2008,06,26,09,24,14.40
2008,06,26,09,25,14.40
2008,06,26,09,26,14.40
2008,06,26,09,27,14.40
2008,06,26,09,28,14.40
2008,06,26,09,29,14.50
2008,06,26,09,30,14.50
2008,06,26,09,31,14.50
2008,06,26,09,32,14.40
2008,06,26,09,33,14.40
2008,06,26,09,34,14.40
2008,06,26,09,35,14.40
2008,06,26,09,36,14.40
2008,06,26,09,37,14.40
2008,06,26,09,38,14.40
2008,06,26,09,39,14.50
2008,06,26,09,40,14.50
2008,06,26,09,41,14.60
2008,06,26,09,42,14.60
2008,06,26,09,43,14.70
2008,06,26,09,44,14.70
2008,06,26,09,45,14.80
2008,06,26,09,46,14.80
2008,06,26,09,47,14.80
2008,06,26,09,48,14.80
2008,06,26,09,49,14.90
2008,06,26,09,50,14.90
2008,06,26,09,51,14.90
2008,06,26,09,52,14.90
2008,06,26,09,53,15.00
2008,06,26,09,54,15.00
2008,06,26,09,55,15.00
2008,06,26,09,56,15.00
2008,06,26,09,57,15.00
2008,06,26,09,58,15.00
2008,06,26,09,59,15.00
2008,06,26,10,00,15.00
2008,06,26,10,01,15.00
2008,06,26,10,02,15.00
2008,06,26,10,03,15.00
2008,06,26,10,04,15.00
2008,06,26,10,05,15.00
2008,06,26,10,06,15.00
2008,06,26,10,07,15.00
2008,06,26,10,08,15.00
2008,06,26,10,09,15.00
2008,06,26,10,10,15.10
2008,06,26,10,11,15.10
2008,06,26,10,12,15.10
2008,06,26,10,13,15.10
2008,06,26,10,14,15.20
2008,06,26,10,15,15.30
2008,06,26,10,16,15.30
2008,06,26,10,17,15.30
2008,06,26,10,18,15.40
2008,06,26,10,19,15.40
2008,06,26,10,20,15.40
2008,06,26,10,21,15.40
2008,06,26,10,22,15.30
2008,06,26,10,23,15.30
2008,06,26,10,24,15.30
2008,06,26,10,25,15.30
2008,06,26,10,26,15.40
2008,06,26,10,27,15.40
2008,06,26,10,28,15.50
2008,06,26,10,29,15.60
2008,06,26,10,30,15.70
2008,06,26,10,31,15.80
2008,06,26,10,32,15.80
2008,06,26,10,33,15.90
2008,06,26,10,34,16.00
2008,06,26,10,35,16.00
2008,06,26,10,36,16.10
2008,06,26,10,37,15.90
2008,06,26,10,38,15.80
2008,06,26,10,39,15.70
2008,06,26,10,40,15.60
2008,06,26,10,41,15.40
2008,06,26,10,42,15.20
2008,06,26,10,43,15.10
2008,06,26,10,44,15.10
2008,06,26,10,45,15.10
2008,06,26,10,46,15.00
2008,06,26,10,47,15.00
2008,06,26,10,48,15.00
2008,06,26,10,49,15.00
2008,06,26,10,50,15.10
2008,06,26,10,51,15.10
2008,06,26,10,52,15.10
2008,06,26,10,53,15.00
2008,06,26,10,54,15.00
2008,06,26,10,55,15.00
2008,06,26,10,56,15.00
2008,06,26,10,57,15.00
2008,06,26,10,58,15.00
2008,06,26,10,59,15.00
2008,06,26,11,00,15.00
2008,06,26,11,01,15.00
2008,06,26,11,02,14.90
2008,06,26,11,03,14.80
2008,06,26,11,04,14.80
2008,06,26,11,05,14.70
2008,06,26,11,06,14.70
2008,06,26,11,07,14.70
2008,06,26,11,08,14.70
2008,06,26,11,09,14.70
2008,06,26,11,10,14.80
2008,06,26,11,11,14.80
2008,06,26,11,12,14.80
2008,06,26,11,13,14.90
2008,06,26,11,14,15.00
2008,06,26,11,15,15.00
2008,06,26,11,16,15.00
2008,06,26,11,17,15.00
2008,06,26,11,18,15.00
2008,06,26,11,19,15.00
2008,06,26,11,20,15.00
2008,06,26,11,21,15.00
2008,06,26,11,22,15.00
2008,06,26,11,23,15.00
2008,06,26,11,24,15.00
2008,06,26,11,25,15.00
2008,06,26,11,26,15.00
2008,06,26,11,27,15.00
2008,06,26,11,28,15.00
2008,06,26,11,29,15.00
2008,06,26,11,30,15.10
2008,06,26,11,31,15.20
2008,06,26,11,32,15.40
2008,06,26,11,33,15.50
2008,06,26,11,34,15.60
2008,06,26,11,35,15.60
2008,06,26,11,36,15.50
2008,06,26,11,37,15.50
2008,06,26,11,38,15.40
2008,06,26,11,39,15.30
2008,06,26,11,40,15.20
2008,06,26,11,41,15.20
2008,06,26,11,42,15.10
2008,06,26,11,43,15.00
2008,06,26,11,44,15.00
2008,06,26,11,45,15.00
2008,06,26,11,46,15.00
2008,06,26,11,47,15.00
2008,06,26,11,48,15.00
2008,06,26,11,49,15.00
2008,06,26,11,50,15.00
2008,06,26,11,51,15.00
2008,06,26,11,52,15.00
2008,06,26,11,53,15.00
2008,06,26,11,54,14.80
2008,06,26,11,55,14.80
2008,06,26,11,56,14.70
2008,06,26,11,57,14.70
2008,06,26,11,58,14.60
2008,06,26,11,59,14.60
2008,06,26,12,00,14.70
2008,06,26,12,01,14.70
2008,06,26,12,02,14.80
2008,06,26,12,03,14.90
2008,06,26,12,04,14.90
2008,06,26,12,05,15.00
2008,06,26,12,06,15.00
2008,06,26,12,07,15.00
2008,06,26,12,08,15.00
2008,06,26,12,09,15.00
2008,06,26,12,10,15.00
2008,06,26,12,11,15.00
2008,06,26,12,12,15.00
2008,06,26,12,13,15.00
2008,06,26,12,14,15.00
2008,06,26,12,15,15.00
2008,06,26,12,16,15.00
2008,06,26,12,17,15.00
2008,06,26,12,18,15.00
2008,06,26,12,19,15.00
2008,06,26,12,20,15.00
2008,06,26,12,21,15.00
2008,06,26,12,22,15.00
2008,06,26,12,23,14.80
2008,06,26,12,24,14.70
2008,06,26,12,25,14.60
2008,06,26,12,26,14.50
2008,06,26,12,27,14.50
2008,06,26,12,28,14.60
2008,06,26,12,29,14.60
2008,06,26,12,30,14.60
2008,06,26,12,31,14.60
2008,06,26,12,32,14.60
2008,06,26,12,33,14.60
2008,06,26,12,34,14.60
2008,06,26,12,35,14.70
2008,06,26,12,36,14.70
2008,06,26,12,37,14.70
2008,06,26,12,38,14.80
2008,06,26,12,39,14.90
2008,06,26,12,40,15.00
2008,06,26,12,41,15.00
2008,06,26,12,42,15.00
2008,06,26,12,43,15.00
2008,06,26,12,44,15.00
2008,06,26,12,45,15.00
2008,06,26,12,46,15.10
2008,06,26,12,47,15.00
2008,06,26,12,48,15.00
2008,06,26,12,49,15.00
2008,06,26,12,50,15.00
2008,06,26,12,51,15.00
2008,06,26,12,52,15.00
2008,06,26,12,53,15.00
2008,06,26,12,54,15.00
2008,06,26,12,55,15.00
2008,06,26,12,56,15.10
2008,06,26,12,57,15.10
2008,06,26,12,58,15.00
2008,06,26,12,59,15.00
2008,06,26,13,00,15.00
2008,06,26,13,01,15.00
2008,06,26,13,02,15.00
2008,06,26,13,03,15.00
2008,06,26,13,04,15.00
2008,06,26,13,05,15.20
2008,06,26,13,06,15.30
2008,06,26,13,07,15.40
2008,06,26,13,08,15.50
2008,06,26,13,09,15.60
2008,06,26,13,10,15.60
2008,06,26,13,11,15.60
2008,06,26,13,12,15.70
2008,06,26,13,13,15.60
2008,06,26,13,14,15.70
2008,06,26,13,15,15.70
2008,06,26,13,16,15.70
2008,06,26,13,17,15.70
2008,06,26,13,18,15.70
2008,06,26,13,19,15.70
2008,06,26,13,20,15.70
2008,06,26,13,21,15.70
2008,06,26,13,22,15.70
2008,06,26,13,23,15.70
2008,06,26,13,24,15.70
2008,06,26,13,25,15.70
2008,06,26,13,26,15.80
2008,06,26,13,27,15.80
2008,06,26,13,28,15.70
2008,06,26,13,29,15.60
2008,06,26,13,30,15.60
2008,06,26,13,31,15.60
2008,06,26,13,32,15.50
2008,06,26,13,33,15.60
2008,06,26,13,34,15.50
2008,06,26,13,35,15.50
2008,06,26,13,36,15.40
2008,06,26,13,37,15.40
2008,06,26,13,38,15.40
2008,06,26,13,39,15.40
2008,06,26,13,40,15.40
2008,06,26,13,41,15.40
2008,06,26,13,42,15.50
2008,06,26,13,43,15.60
2008,06,26,13,44,15.60
2008,06,26,13,45,15.70
2008,06,26,13,46,15.70
2008,06,26,13,47,15.70
2008,06,26,13,48,15.80
2008,06,26,13,49,15.80
2008,06,26,13,50,15.70
2008,06,26,13,51,15.70
2008,06,26,13,52,15.80
2008,06,26,13,53,15.90
2008,06,26,13,54,16.00
2008,06,26,13,55,16.10
2008,06,26,13,56,16.10
2008,06,26,13,57,16.20
2008,06,26,13,58,16.20
2008,06,26,13,59,16.30
2008,06,26,14,00,16.30
2008,06,26,14,01,16.40
2008,06,26,14,02,16.40
2008,06,26,14,03,16.40
2008,06,26,14,04,16.40
2008,06,26,14,05,16.40
2008,06,26,14,06,16.40
2008,06,26,14,07,16.40
2008,06,26,14,08,16.30
2008,06,26,14,09,16.30
2008,06,26,14,10,16.30
2008,06,26,14,11,16.30
2008,06,26,14,12,16.30
2008,06,26,14,13,16.20
2008,06,26,14,14,16.20
2008,06,26,14,15,16.20
2008,06,26,14,16,16.10
2008,06,26,14,17,16.00
2008,06,26,14,18,15.80
2008,06,26,14,19,15.80
2008,06,26,14,20,15.80
2008,06,26,14,21,15.90
2008,06,26,14,22,15.90
2008,06,26,14,23,15.90
2008,06,26,14,24,15.90
2008,06,26,14,25,15.90
2008,06,26,14,26,15.90
2008,06,26,14,27,15.90
2008,06,26,14,28,15.90
2008,06,26,14,29,16.00
2008,06,26,14,30,16.00
2008,06,26,14,31,15.90
2008,06,26,14,32,15.90
2008,06,26,14,33,15.90
2008,06,26,14,34,16.00
2008,06,26,14,35,16.00
2008,06,26,14,36,15.90
2008,06,26,14,37,15.90
2008,06,26,14,38,15.80
2008,06,26,14,39,15.80
2008,06,26,14,40,15.90
2008,06,26,14,41,15.90
2008,06,26,14,42,16.00
2008,06,26,14,43,16.00
2008,06,26,14,44,16.00
2008,06,26,14,45,16.10
2008,06,26,14,46,16.10
2008,06,26,14,47,16.10
2008,06,26,14,48,16.10
2008,06,26,14,49,16.10
2008,06,26,14,50,16.10
2008,06,26,14,51,16.00
2008,06,26,14,52,15.90
2008,06,26,14,53,15.90
2008,06,26,14,54,15.90
2008,06,26,14,55,15.90
2008,06,26,14,56,15.80
2008,06,26,14,57,15.90
2008,06,26,14,58,15.90
2008,06,26,14,59,15.90
2008,06,26,15,00,15.90
2008,06,26,15,01,15.90
2008,06,26,15,02,15.90
2008,06,26,15,03,15.80
2008,06,26,15,04,15.80
2008,06,26,15,05,15.70
2008,06,26,15,06,15.70
2008,06,26,15,07,15.70
2008,06,26,15,08,15.80
2008,06,26,15,09,15.80
2008,06,26,15,10,16.00
2008,06,26,15,11,16.10
2008,06,26,15,12,16.10
2008,06,26,15,13,16.20
2008,06,26,15,14,16.20
2008,06,26,15,15,16.20
2008,06,26,15,16,16.10
2008,06,26,15,17,16.10
2008,06,26,15,18,16.10
2008,06,26,15,19,16.10
2008,06,26,15,20,16.10
2008,06,26,15,21,16.10
2008,06,26,15,22,16.00
2008,06,26,15,23,16.00
2008,06,26,15,24,15.90
2008,06,26,15,25,15.90
2008,06,26,15,26,15.90
2008,06,26,15,27,15.90
2008,06,26,15,28,15.90
2008,06,26,15,29,16.00
2008,06,26,15,30,16.00
2008,06,26,15,31,16.00
2008,06,26,15,32,16.00
2008,06,26,15,33,15.90
2008,06,26,15,34,15.80
2008,06,26,15,35,15.70
2008,06,26,15,36,15.60
2008,06,26,15,37,15.60
2008,06,26,15,38,15.50
2008,06,26,15,39,15.40
2008,06,26,15,40,15.30
2008,06,26,15,41,15.10
2008,06,26,15,42,15.00
2008,06,26,15,43,15.00
2008,06,26,15,44,15.00
2008,06,26,15,45,14.90
2008,06,26,15,46,14.80
2008,06,26,15,47,14.80
2008,06,26,15,48,14.90
2008,06,26,15,49,15.00
2008,06,26,15,50,15.00
2008,06,26,15,51,15.00
2008,06,26,15,52,15.00
2008,06,26,15,53,15.00
2008,06,26,15,54,15.00
2008,06,26,15,55,15.00
2008,06,26,15,56,15.00
2008,06,26,15,57,15.00
2008,06,26,15,58,14.90
2008,06,26,15,59,14.80
2008,06,26,16,00,14.70
2008,06,26,16,01,14.70
2008,06,26,16,02,14.60
2008,06,26,16,03,14.60
2008,06,26,16,04,14.70
2008,06,26,16,05,14.70
2008,06,26,16,06,14.70
2008,06,26,16,07,14.70
2008,06,26,16,08,14.70
2008,06,26,16,09,14.70
2008,06,26,16,10,14.70
2008,06,26,16,11,14.80
2008,06,26,16,12,14.80
2008,06,26,16,13,14.70
2008,06,26,16,14,14.70
2008,06,26,16,15,14.60
2008,06,26,16,16,14.50
2008,06,26,16,17,14.40
2008,06,26,16,18,14.40
2008,06,26,16,19,14.30
2008,06,26,16,20,14.30
2008,06,26,16,21,14.30
2008,06,26,16,22,14.30
2008,06,26,16,23,14.20
2008,06,26,16,24,14.10
2008,06,26,16,25,14.00
2008,06,26,16,26,14.10
2008,06,26,16,27,14.00
2008,06,26,16,28,14.00
2008,06,26,16,29,14.00
2008,06,26,16,30,13.90
2008,06,26,16,31,13.90
2008,06,26,16,32,13.90
2008,06,26,16,33,13.90
2008,06,26,16,34,13.90
2008,06,26,16,35,13.80
2008,06,26,16,36,13.80
2008,06,26,16,37,13.70
2008,06,26,16,38,13.70
2008,06,26,16,39,13.70
2008,06,26,16,40,13.70
2008,06,26,16,41,13.80
2008,06,26,16,42,13.80
2008,06,26,16,43,13.80
2008,06,26,16,44,13.80
2008,06,26,16,45,13.70
2008,06,26,16,46,13.70
2008,06,26,16,47,13.60
2008,06,26,16,48,13.60
2008,06,26,16,49,13.50
2008,06,26,16,50,13.40
2008,06,26,16,51,13.30
2008,06,26,16,52,13.20
2008,06,26,16,53,13.20
2008,06,26,16,54,13.20
2008,06,26,16,55,13.20
2008,06,26,16,56,13.20
2008,06,26,16,57,13.20
2008,06,26,16,58,13.10
2008,06,26,16,59,13.10
2008,06,26,17,00,13.20
2008,06,26,17,01,13.10
2008,06,26,17,02,13.00
2008,06,26,17,03,13.00
2008,06,26,17,04,12.90
2008,06,26,17,05,12.80
2008,06,26,17,06,12.80
2008,06,26,17,07,12.80
2008,06,26,17,08,12.80
2008,06,26,17,09,12.80
2008,06,26,17,10,12.80
2008,06,26,17,11,12.80
2008,06,26,17,12,12.80
2008,06,26,17,13,12.80
2008,06,26,17,14,12.80
2008,06,26,17,15,12.80
2008,06,26,17,16,12.80
2008,06,26,17,17,12.80
2008,06,26,17,18,12.80
2008,06,26,17,19,12.80